Big Piney, WY

2:40 AM MDT on September 25, 2017 (GMT -0600)
Big Piney-Marbleton

Weather History for KBPI - September, 2013

Change the Weather History Date:

Friday, September 6, 2013

  Actual Average Record
Temperature  
Mean Temperature 67 °F 53 °F  
Max Temperature 82 °F 72 °F 83 °F (1979)
Min Temperature 51 °F 35 °F 19 °F (1996)
Degree Days  
Heating Degree Days 0 12  
Month to date heating degree days 5 65  
Since 1 July heating degree days 106 358  
Cooling Degree Days 2 0  
Month to date cooling degree days 5 0  
Year to date cooling degree days 89 35  
Growing Degree Days 16 (Base 50)    
Moisture  
Dew Point 48 °F    
Average Humidity 59    
Maximum Humidity 89    
Minimum Humidity 28    
Precipitation  
Precipitation 0.02 in 0.03 in 0.06 in (2014)
Month to date precipitation 0.06 0.16  
Year to date precipitation 3.06 4.82  
Sea Level Pressure  
Sea Level Pressure 30.08 in    
Wind  
Wind Speed 8 mph (NE)    
Max Wind Speed 24 mph    
Max Gust Speed 32 mph    
Visibility 10 miles    
Events Rain , Thunderstorm    
T = Trace of Precipitation, MM = Missing Value Source: NWS Daily Summary

Daily Weather History Graph

Daily Weather History Graph

Search for Another Location

Airport or City:

Trip Planner

Search our weather history database for the weather conditions in past years. The results will help you decide how hot, cold, wet, or windy it might be!

Date:

Astronomy

Sep. 06, 2013 Rise Set
Actual Time 6:51 AM MDT 7:45 PM MDT
Civil Twilight 6:22 AM MDT 8:14 PM MDT
Nautical Twilight 5:48 AM MDT 8:48 PM MDT
Astronomical Twilight 5:12 AM MDT 9:23 PM MDT
Moon 8:09 AM MDT (9/6) 8:08 PM MDT (9/6)
Length of Visible Light 13h 51m
Length of Day
12h 54m
New Moon, 2% of the Moon is Illuminated
Sep 6
New Moon
Sep 12
First Quarter
Sep 19
Full
Sep 26
Last Quarter
Oct 4
New

Hourly Weather History & Observations

Time (MDT) Temp. Dew Point Humidity Pressure Visibility Wind Dir Wind Speed Gust Speed Precip Events Conditions
12:53 AM 60.1 °F 45.0 °F 57% 29.99 in 10.0 mi East 8.1 mph - N/A   Scattered Clouds
1:53 AM 59.0 °F 46.0 °F 62% 30.00 in 10.0 mi NW 4.6 mph - N/A   Scattered Clouds
2:53 AM 57.9 °F 48.0 °F 70% 30.00 in 10.0 mi Calm Calm - N/A   Clear
3:53 AM 54.0 °F 45.0 °F 72% 30.02 in 10.0 mi North 3.5 mph - N/A   Clear
4:53 AM 52.0 °F 44.1 °F 74% 30.03 in 10.0 mi ENE 8.1 mph - N/A   Clear
5:53 AM 52.0 °F 48.9 °F 89% 30.04 in 10.0 mi Calm Calm - 0.00 in   Mostly Cloudy
6:53 AM 53.1 °F 48.0 °F 83% 30.06 in 10.0 mi NE 3.5 mph - N/A   Partly Cloudy
7:53 AM 57.0 °F 50.0 °F 77% 30.08 in 10.0 mi Calm Calm - N/A   Partly Cloudy
8:53 AM 55.0 °F 50.0 °F 83% 30.14 in 9.0 mi SSE 4.6 mph - 0.01 in Rain Light Rain
9:53 AM 59.0 °F 48.9 °F 69% 30.14 in 10.0 mi Calm Calm - 0.00 in   Mostly Cloudy
10:53 AM 61.0 °F 51.1 °F 70% 30.12 in 10.0 mi ESE 5.8 mph - 0.00 in   Overcast
11:53 AM 63.0 °F 54.0 °F 72% 30.11 in 10.0 mi SE 8.1 mph - 0.01 in   Mostly Cloudy
12:53 PM 71.1 °F 48.9 °F 45% 30.06 in 10.0 mi ENE 4.6 mph - N/A   Clear
1:53 PM 78.1 °F 45.0 °F 31% 30.01 in 10.0 mi SE 8.1 mph - N/A   Clear
2:27 PM 78.8 °F 48.2 °F 34% 30.31 in 10.0 mi ESE 8.1 mph - N/A Thunderstorm Partly Cloudy
2:40 PM 78.8 °F 48.2 °F 34% 30.30 in 10.0 mi East 11.5 mph - N/A Thunderstorm Mostly Cloudy
2:53 PM 77.0 °F 48.0 °F 36% 29.99 in 10.0 mi NE 9.2 mph - N/A Thunderstorm Thunderstorm
3:06 PM 77.0 °F 46.4 °F 34% 30.29 in 10.0 mi ENE 8.1 mph - N/A   Overcast
3:20 PM 78.8 °F 46.4 °F 32% 30.29 in 10.0 mi NNE 5.8 mph - N/A Thunderstorm Overcast
3:38 PM 77.0 °F 44.6 °F 32% 30.28 in 10.0 mi East 4.6 mph - N/A   Mostly Cloudy
3:53 PM 78.1 °F 45.0 °F 31% 29.99 in 10.0 mi ENE 5.8 mph - N/A   Scattered Clouds
4:53 PM 79.0 °F 42.1 °F 27% 29.96 in 10.0 mi West 4.6 mph - N/A   Clear
5:53 PM 71.1 °F 48.0 °F 44% 29.98 in 10.0 mi NW 17.3 mph 24.2 mph N/A   Mostly Cloudy
6:53 PM 72.0 °F 48.9 °F 44% 29.96 in 10.0 mi NNW 11.5 mph - N/A   Mostly Cloudy
7:53 PM 68.0 °F 48.0 °F 49% 29.97 in 10.0 mi NNE 18.4 mph - N/A   Mostly Cloudy
8:53 PM 64.0 °F 48.9 °F 58% 30.02 in 10.0 mi NNE 21.9 mph 28.8 mph N/A   Scattered Clouds
9:53 PM 61.0 °F 48.0 °F 62% 30.04 in 10.0 mi NNE 16.1 mph - N/A   Partly Cloudy
10:53 PM 62.1 °F 48.0 °F 60% 30.03 in 10.0 mi NNE 15.0 mph - N/A   Overcast
11:53 PM 61.0 °F 48.0 °F 62% 30.03 in 10.0 mi North 16.1 mph 26.5 mph N/A   Partly Cloudy